TimeCST,TemperatureF,Dew PointF,Humidity,Sea Level PressureIn,VisibilityMPH,Wind Direction,Wind SpeedMPH,Gust SpeedMPH,PrecipitationIn,Events,Conditions,WindDirDegrees,DateUTC
12:54 AM,8.1,3.9,83,30.39,10.0,SW,3.5,-,N/A,,Clear,230,2013-01-18 06:54:00
1:54 AM,9.0,5.0,84,30.39,10.0,South,3.5,-,N/A,,Mostly Cloudy,190,2013-01-18 07:54:00
2:54 AM,10.0,5.0,80,30.36,10.0,SSE,5.8,-,N/A,,Overcast,150,2013-01-18 08:54:00
3:54 AM,10.9,5.0,77,30.33,4.0,South,9.2,-,0.00,Snow,Light Snow,170,2013-01-18 09:54:00
4:03 AM,10.4,6.8,85,30.24,2.5,South,10.4,-,0.00,Snow,Light Snow,170,2013-01-18 10:03:00
4:15 AM,10.4,6.8,85,30.24,1.8,South,10.4,-,0.00,Snow,Light Snow,170,2013-01-18 10:15:00
4:54 AM,10.9,7.0,84,30.30,1.2,SSE,8.1,-,0.00,Snow,Light Snow,150,2013-01-18 10:54:00
5:01 AM,10.4,6.8,85,30.20,1.0,SSE,10.4,-,0.00,Snow,Light Snow,160,2013-01-18 11:01:00
5:07 AM,10.4,6.8,85,30.20,0.8,SSE,6.9,-,0.00,Snow,Light Snow,150,2013-01-18 11:07:00
5:16 AM,10.4,6.8,85,30.19,1.0,SSE,8.1,-,0.00,Snow,Light Snow,150,2013-01-18 11:16:00
5:42 AM,10.4,6.8,85,30.17,0.8,SSE,10.4,-,0.01,Snow,Light Snow,150,2013-01-18 11:42:00
5:54 AM,10.9,7.0,84,30.25,1.0,SSE,9.2,-,0.01,Snow,Light Snow,150,2013-01-18 11:54:00
5:59 AM,10.4,6.8,85,30.16,1.2,SSE,9.2,-,0.00,Snow,Light Snow,150,2013-01-18 11:59:00
6:31 AM,10.4,6.8,85,30.14,2.0,SSE,9.2,-,0.00,Snow,Light Snow,150,2013-01-18 12:31:00
6:41 AM,10.4,8.6,92,30.12,1.8,SSE,12.7,-,0.00,Snow,Light Snow,150,2013-01-18 12:41:00
6:50 AM,10.4,8.6,92,30.12,2.0,SE,11.5,-,0.00,Snow,Light Snow,140,2013-01-18 12:50:00
6:54 AM,10.9,8.1,88,30.20,1.8,SE,10.4,-,0.00,Snow,Light Snow,140,2013-01-18 12:54:00
7:10 AM,12.2,8.6,85,30.09,2.5,SE,11.5,-,0.00,Snow,Light Snow,130,2013-01-18 13:10:00
7:26 AM,12.2,8.6,85,30.07,1.8,SE,11.5,-,0.00,Snow,Light Snow,140,2013-01-18 13:26:00
7:36 AM,12.2,8.6,85,30.06,3.0,SE,15.0,20.7,0.00,Snow,Light Snow,140,2013-01-18 13:36:00
7:54 AM,12.9,9.0,84,30.12,8.0,SSE,13.8,-,0.00,,Overcast,150,2013-01-18 13:54:00
8:08 AM,12.2,8.6,85,30.03,9.0,SSE,13.8,-,N/A,,Overcast,160,2013-01-18 14:08:00
8:54 AM,15.1,10.9,84,30.08,10.0,SSE,13.8,-,N/A,,Overcast,160,2013-01-18 14:54:00
9:23 AM,17.6,12.2,79,29.98,10.0,SSE,12.7,20.7,N/A,,Mostly Cloudy,160,2013-01-18 15:23:00
9:54 AM,19.0,14.0,81,30.04,10.0,South,13.8,-,N/A,,Overcast,170,2013-01-18 15:54:00
10:54 AM,24.1,18.0,77,29.97,10.0,South,13.8,-,N/A,,Clear,180,2013-01-18 16:54:00
11:54 AM,28.9,21.0,72,29.91,10.0,SSW,8.1,-,N/A,,Overcast,210,2013-01-18 17:54:00
12:54 PM,36.0,26.1,67,29.83,10.0,SW,11.5,-,N/A,,Clear,220,2013-01-18 18:54:00
1:54 PM,39.9,27.0,60,29.80,10.0,SW,9.2,-,N/A,,Clear,230,2013-01-18 19:54:00
2:54 PM,41.0,28.0,60,29.79,10.0,SW,13.8,20.7,N/A,,Clear,220,2013-01-18 20:54:00
3:54 PM,39.9,28.9,65,29.79,10.0,WSW,9.2,-,N/A,,Clear,240,2013-01-18 21:54:00
4:54 PM,37.0,28.9,73,29.78,10.0,SW,8.1,-,N/A,,Clear,220,2013-01-18 22:54:00
5:54 PM,36.0,28.9,76,29.78,10.0,SW,5.8,-,N/A,,Clear,230,2013-01-18 23:54:00
6:54 PM,36.0,28.9,76,29.78,10.0,SW,6.9,-,N/A,,Clear,230,2013-01-19 00:54:00
7:54 PM,35.1,28.9,78,29.78,10.0,SW,8.1,-,N/A,,Clear,230,2013-01-19 01:54:00
8:54 PM,34.0,28.9,82,29.78,10.0,West,8.1,-,N/A,,Clear,260,2013-01-19 02:54:00
9:54 PM,32.0,28.0,85,29.79,10.0,West,5.8,-,N/A,,Clear,280,2013-01-19 03:54:00
10:54 PM,32.0,27.0,82,29.79,10.0,West,9.2,-,N/A,,Clear,280,2013-01-19 04:54:00
11:54 PM,30.0,26.1,85,29.80,10.0,West,6.9,-,N/A,,Clear,280,2013-01-19 05:54:00